Spokane Fairchild, WA
on Tuesday, November 20, 2012

Tuesday
Previous Day Next Day
Daily Summary
 ActualAverage (KGEG)Record (KGEG)
Temperature
Mean Temperature °F 34°F  
Max Temperature 48°F 39°F 61°F (1917)
Min Temperature 41°F 29°F 4°F (1985)
Degree Days
Heating Degree Days 20 31  
Month to date heating degree days 548  
Since 1 July heating degree days 1336  
Cooling Degree Days 0 0  
Month to date cooling degree days 0  
Year to date cooling degree days 450  
Moisture
Dew Point 45°F   
Average Humidity 100    
Maximum Humidity 100    
Minimum Humidity 99    
Precipitation
Precipitation 0.46 in 0.08 in 0.95 in (1998)
Month to date precipitation 1.47  
Year to date precipitation 13.43  
Snow
Snow 0.00 in 0.30 in 8.20 in (2003)
Month to date snowfall 3.7  
Since 1 July snowfall 3.8  
Since 1 September snowfall 3.8  
Snow Depth in   
Wind
Wind Speed 13 mph   
Max Wind Speed 21 mph   
Max Gust Speed 30 mph   
Visibility 10 miles   
Events Rain   

Key: T is trace of precipitation, MM is missing value
Source: NWS Daily Summary
Time(PST)TemperatureDew PointHumidity Pressure Visibility Wind DirectionWind SpeedGust SpeedPrecipitationEvents Conditions
12:08 AM 44.6°F 44.6°F 100% 29.76 in 10.0 miles South 12.7 mph - N/A Rain Light Rain
12:18 AM 44.6°F 44.6°F 100% 29.77 in 10.0 miles South 16.1 mph - N/A Rain Light Rain
12:23 AM 44.6°F 44.6°F 100% 29.77 in 10.0 miles South 18.4 mph - N/A Rain Rain
12:58 AM 44.6°F 44.6°F 100% 29.78 in 10.0 miles SSW 20.7 mph 26.5 mph 0.06 in Rain Light Rain
1:27 AM 44.6°F 44.6°F 100% 29.76 in 10.0 miles South 16.1 mph 21.9 mph N/A Rain Light Rain
1:42 AM 44.6°F 44.6°F 100% 29.76 in 10.0 miles South 16.1 mph 24.2 mph N/A   Overcast
1:58 AM 44.4°F 44.4°F 100% 29.77 in 10.0 miles SSW 16.1 mph 25.3 mph 0.01 in   Overcast
2:03 AM 44.6°F 44.6°F 100% 29.76 in 10.0 miles South 20.7 mph 26.5 mph N/A   Overcast
2:18 AM 44.6°F 44.6°F 100% 29.78 in 10.0 miles SSW 19.6 mph 23.0 mph N/A   Overcast
2:20 AM 44.6°F 44.6°F 100% 29.77 in 10.0 miles South 19.6 mph 23.0 mph N/A Rain Light Rain
2:25 AM 44.6°F 44.6°F 100% 29.78 in 10.0 miles SSW 18.4 mph 28.8 mph N/A Rain Light Rain
2:33 AM 44.6°F 44.6°F 100% 29.78 in 10.0 miles SSW 15.0 mph 29.9 mph N/A   Overcast
2:58 AM 44.8°F 44.8°F 100% 29.76 in 10.0 miles South 15.0 mph 20.7 mph 0.00 in   Overcast
3:03 AM 44.6°F 44.6°F 100% 29.78 in 10.0 miles SSW 12.7 mph - N/A   Overcast
3:23 AM 44.6°F 44.6°F 100% 29.78 in 10.0 miles SSW 17.3 mph 20.7 mph N/A   Overcast
3:35 AM 44.6°F 44.6°F 100% 29.78 in 10.0 miles South 13.8 mph 25.3 mph N/A Rain Light Rain
3:49 AM 44.6°F 44.6°F 100% 29.77 in 10.0 miles South 15.0 mph - N/A Rain Light Rain
3:58 AM 44.6°F 44.6°F 100% 29.78 in 10.0 miles South 11.5 mph - 0.00 in Rain Light Rain
4:43 AM 44.6°F 44.6°F 100% 29.80 in 10.0 miles South 11.5 mph - N/A Rain Light Rain
4:48 AM 44.6°F 44.6°F 100% 29.80 in 10.0 miles South 10.4 mph - N/A Rain Light Rain
4:58 AM 44.2°F 44.2°F 100% 29.79 in 8.0 miles South 9.2 mph - 0.02 in Rain Light Rain
5:03 AM 44.6°F 44.6°F 100% 29.78 in 8.0 miles South 10.4 mph - N/A Rain Light Rain
5:38 AM 44.6°F 44.6°F 100% 29.77 in 10.0 miles South 6.9 mph - N/A Rain Light Rain
5:39 AM 44.6°F 44.6°F 100% 29.77 in 10.0 miles South 5.8 mph - N/A   Overcast
5:54 AM 44.6°F 44.6°F 100% 29.76 in 10.0 miles SSE 5.8 mph - N/A   Mostly Cloudy
5:58 AM 43.9°F 43.9°F 100% 29.79 in 10.0 miles SSE 6.9 mph - 0.02 in   Mostly Cloudy
6:03 AM 44.6°F 44.6°F 100% 29.76 in 10.0 miles SSE 9.2 mph - N/A   Mostly Cloudy
6:23 AM 44.6°F 44.6°F 100% 29.75 in 10.0 miles SE 10.4 mph - N/A   Overcast
6:27 AM 44.6°F 44.6°F 100% 29.74 in 10.0 miles SE 11.5 mph - N/A Rain Light Rain
6:47 AM 44.6°F 44.6°F 100% 29.74 in 10.0 miles SSE 8.1 mph - N/A Rain Light Rain
6:52 AM 44.6°F 44.6°F 100% 29.74 in 10.0 miles SSE 5.8 mph - N/A   Overcast
6:58 AM 44.6°F 44.6°F 100% 29.78 in 10.0 miles South 8.1 mph - 0.00 in   Overcast
7:03 AM 44.6°F 44.6°F 100% 29.75 in 10.0 miles SSE 8.1 mph - N/A   Overcast
7:04 AM 44.6°F 44.6°F 100% 29.75 in 10.0 miles SSE 6.9 mph - N/A Rain Light Rain
7:14 AM 44.6°F 44.6°F 100% 29.75 in 10.0 miles South 8.1 mph - N/A Rain Light Rain
7:49 AM 44.6°F 44.6°F 100% 29.74 in 8.0 miles SSE 8.1 mph - N/A Rain Light Rain
7:58 AM 44.8°F 44.8°F 100% 29.77 in 9.0 miles SSE 9.2 mph - 0.02 in Rain Light Rain
8:13 AM 44.6°F 44.6°F 100% 29.75 in 10.0 miles SSE 9.2 mph - N/A Rain Light Rain
8:38 AM 44.6°F 44.6°F 100% 29.75 in 10.0 miles South 10.4 mph - N/A Rain Light Rain
8:58 AM 45.0°F 45.0°F 100% 29.77 in 9.0 miles SSE 13.8 mph - 0.05 in Rain Light Rain
9:41 AM 44.6°F 44.6°F 100% 29.73 in 10.0 miles South 9.2 mph - N/A   Mostly Cloudy
9:58 AM 45.5°F 45.5°F 100% 29.76 in 10.0 miles SSE 13.8 mph - 0.02 in   Overcast
9:59 AM 46.4°F 46.4°F 100% 29.73 in 10.0 miles SSE 13.8 mph - N/A Rain Light Rain
10:04 AM 46.4°F 46.4°F 100% 29.72 in 10.0 miles SSE 11.5 mph - N/A Rain Light Rain
10:09 AM 46.4°F 46.4°F 100% 29.72 in 10.0 miles SSE 9.2 mph - N/A Rain Light Rain
10:14 AM 44.6°F 44.6°F 100% 29.72 in 10.0 miles SSE 10.4 mph - N/A Rain Light Rain
10:24 AM 44.6°F 44.6°F 100% 29.71 in 10.0 miles SE 11.5 mph - N/A Rain Light Rain
10:29 AM 44.6°F 44.6°F 100% 29.72 in 10.0 miles SSE 10.4 mph - N/A Rain Light Rain
10:58 AM 45.5°F 45.5°F 100% 29.74 in 10.0 miles South 10.4 mph - 0.01 in Rain Light Rain
11:58 AM 45.3°F 45.3°F 100% 29.73 in 10.0 miles South 9.2 mph - 0.10 in Rain Light Rain
12:58 PM 45.3°F 45.3°F 100% 29.72 in 6.0 miles SSE 9.2 mph - 0.09 in Rain Rain
1:12 PM 44.6°F 44.6°F 100% 29.69 in 7.0 miles SSE 9.2 mph - N/A Rain Light Rain
1:41 PM 46.4°F 46.4°F 100% 29.67 in 10.0 miles SE 15.0 mph - N/A   Mostly Cloudy
1:58 PM 46.8°F 46.8°F 100% 29.70 in 10.0 miles SE 12.7 mph - 0.06 in   Mostly Cloudy
2:03 PM 48.2°F 48.2°F 100% 29.68 in 10.0 miles SE 15.0 mph - N/A   Mostly Cloudy
2:13 PM 48.2°F 48.2°F 100% 29.68 in 10.0 miles SSE 16.1 mph - N/A   Mostly Cloudy
2:18 PM 46.4°F 46.4°F 100% 29.68 in 10.0 miles SSE 12.7 mph - N/A   Mostly Cloudy
2:28 PM 46.4°F 46.4°F 100% 29.67 in 10.0 miles SSE 15.0 mph - N/A   Mostly Cloudy
2:58 PM 47.5°F 47.5°F 100% 29.70 in 10.0 miles South 11.5 mph - N/A   Scattered Clouds
3:05 PM 48.2°F 48.2°F 100% 29.68 in 10.0 miles South 13.8 mph - N/A Rain Light Rain
3:15 PM 46.4°F 46.4°F 100% 29.68 in 10.0 miles South 12.7 mph - N/A   Partly Cloudy
3:58 PM 47.1°F 47.1°F 100% 29.72 in 10.0 miles South 12.7 mph - 0.00 in   Clear
4:58 PM 45.1°F 45.1°F 100% 29.72 in 10.0 miles South 8.1 mph - N/A   Scattered Clouds
5:58 PM 45.3°F 45.1°F 99% 29.73 in 10.0 miles South 9.2 mph - N/A   Clear
6:58 PM 42.4°F 42.4°F 100% 29.74 in 10.0 miles South 9.2 mph - N/A   Partly Cloudy
7:48 PM 42.8°F 42.8°F 100% 29.72 in 10.0 miles South 10.4 mph - N/A   Scattered Clouds
7:58 PM 42.8°F 42.8°F 100% 29.75 in 10.0 miles South 12.7 mph - 0.00 in   Mostly Cloudy
8:03 PM 42.8°F 42.8°F 100% 29.73 in 10.0 miles South 12.7 mph - N/A   Mostly Cloudy
8:10 PM 42.8°F 42.8°F 100% 29.73 in 10.0 miles South 12.7 mph - N/A   Overcast
8:20 PM 42.8°F 42.8°F 100% 29.72 in 10.0 miles South 13.8 mph - N/A   Mostly Cloudy
8:58 PM 43.7°F 43.7°F 100% 29.75 in 10.0 miles South 13.8 mph - 0.00 in   Mostly Cloudy
9:17 PM 42.8°F 42.8°F 100% 29.72 in 10.0 miles South 11.5 mph - N/A Rain Light Rain
9:27 PM 42.8°F 42.8°F 100% 29.71 in 10.0 miles South 10.4 mph - N/A   Overcast
9:58 PM 43.2°F 43.2°F 100% 29.75 in 10.0 miles South 9.2 mph - 0.00 in   Scattered Clouds
10:58 PM 41.7°F 41.7°F 100% 29.74 in 10.0 miles South 11.5 mph - N/A   Scattered Clouds
11:58 PM 41.0°F 41.0°F 100% 29.73 in 10.0 miles South 9.2 mph - N/A   Scattered Clouds
Moon Phase
Nov. 20 Nov. 28 Dec. 06 Dec. 13 Dec. 20
Sunrise:07:03 AM (PST) Moon Rise:12:25 PM (PST)11/20
Sunset:04:08 PM (PST) Moon Set:No Moon Set/

Copyright © 2014 The Weather Underground, Inc.